West Yellowstone, MT

11:05 AM MST on February 14, 2016 (GMT -0700)
Yellowstone

Weather History for KWYS - November, 2013

Change the Weather History Date:

Thursday, November 14, 2013

  Actual Average Record
Temperature  
Mean Temperature 30 °F -  
Max Temperature 32 °F 34 °F 32 °F (2011)
Min Temperature 28 °F 14 °F 15 °F (2014)
Degree Days  
Heating Degree Days 35    
Moisture  
Dew Point 26 °F    
Average Humidity 84    
Maximum Humidity 87    
Minimum Humidity 80    
Precipitation  
Precipitation 0.00 in - - ()
Sea Level Pressure  
Sea Level Pressure 30.08 in    
Wind  
Wind Speed 9 mph (SSW)    
Max Wind Speed 15 mph    
Max Gust Speed 22 mph    
Visibility 9 miles    
Events Fog    
Averages and records for this station are not official NWS values.
T = Trace of Precipitation, MM = Missing Value Source: NWS Daily Summary

Daily Weather History Graph

Daily Weather History Graph

Search for Another Location

Airport or City:

Trip Planner

Search our weather history database for the weather conditions in past years. The results will help you decide how hot, cold, wet, or windy it might be!

Date:

Astronomy

Nov. 14, 2013 Rise Set
Actual Time 7:20 AM MST 4:57 PM MST
Civil Twilight 6:48 AM MST 5:28 PM MST
Nautical Twilight 6:13 AM MST 6:03 PM MST
Astronomical Twilight 5:39 AM MST 6:38 PM MST
Moon 3:25 PM MST 4:12 AM MST
Length of Visible Light 10h 39m
Length of Day
9h 36m
Waxing Gibbous, 92% of the Moon is Illuminated
Nov 14
Waxing Gibbous
Nov 17
Full
Nov 25
Last Quarter
Dec 2
New
Dec 9
First Quarter

Hourly Weather History & Observations

Time (MST) Temp. Windchill Dew Point Humidity Pressure Visibility Wind Dir Wind Speed Gust Speed Precip Events Conditions
12:05 AM 30.2 °F 22.6 °F 26.6 °F 86% 30.20 in 10.0 mi SW 8.1 mph - N/A   Clear
12:25 AM 30.2 °F 22.6 °F 26.6 °F 86% 30.21 in 10.0 mi WSW 8.1 mph - N/A   Clear
12:45 AM 30.2 °F 22.6 °F 26.6 °F 86% 30.20 in 10.0 mi SW 8.1 mph 16.1 mph N/A   Clear
1:05 AM 30.2 °F 21.3 °F 26.6 °F 86% 30.20 in 10.0 mi SW 10.4 mph - N/A   Clear
1:25 AM 30.2 °F 20.8 °F 26.6 °F 86% 30.20 in 10.0 mi SSW 11.5 mph - N/A   Clear
1:45 AM 30.2 °F 21.3 °F 26.6 °F 86% 30.20 in 10.0 mi SSW 10.4 mph - N/A   Clear
2:05 AM 30.2 °F 22.6 °F 26.6 °F 86% 30.19 in 10.0 mi SW 8.1 mph - N/A   Clear
2:25 AM 28.4 °F 24.6 °F 24.8 °F 86% 30.19 in 10.0 mi West 3.5 mph - N/A   Clear
2:45 AM 28.4 °F 19.7 °F 24.8 °F 86% 30.19 in 10.0 mi SW 9.2 mph - N/A   Clear
3:05 AM 30.2 °F 20.2 °F 26.6 °F 86% 30.18 in 10.0 mi SW 12.7 mph 18.4 mph N/A   Clear
3:25 AM 30.2 °F 21.3 °F 26.6 °F 86% 30.18 in 10.0 mi SW 10.4 mph - N/A   Clear
3:45 AM 30.2 °F 21.9 °F 24.8 °F 80% 30.17 in 10.0 mi SSW 9.2 mph - N/A   Clear
4:05 AM 30.2 °F 21.9 °F 26.6 °F 86% 30.17 in 10.0 mi SW 9.2 mph - N/A   Clear
4:25 AM 30.2 °F 20.8 °F 26.6 °F 86% 30.16 in 10.0 mi SW 11.5 mph 19.6 mph N/A   Clear
4:45 AM 30.2 °F 22.6 °F 26.6 °F 86% 30.16 in 10.0 mi WSW 8.1 mph 18.4 mph N/A   Partly Cloudy
5:05 AM 30.2 °F 22.6 °F 26.6 °F 86% 30.16 in 10.0 mi SW 8.1 mph - N/A   Mostly Cloudy
5:25 AM 32.0 °F 23.6 °F 26.6 °F 80% 30.15 in 10.0 mi SW 10.4 mph 18.4 mph N/A   Overcast
5:45 AM 32.0 °F 23.6 °F 26.6 °F 80% 30.15 in 10.0 mi SW 10.4 mph 19.6 mph N/A   Overcast
6:05 AM 32.0 °F 23.6 °F 26.6 °F 80% 30.14 in 10.0 mi SW 10.4 mph - N/A   Overcast
6:25 AM 32.0 °F 28.7 °F 26.6 °F 80% 30.14 in 10.0 mi South 3.5 mph - N/A   Overcast
6:45 AM 30.2 °F 21.3 °F 26.6 °F 86% 30.13 in 5.0 mi SSW 10.4 mph 17.3 mph N/A   Overcast
7:05 AM 30.2 °F 22.6 °F 26.6 °F 86% 30.13 in 7.0 mi SW 8.1 mph - N/A   Overcast
7:25 AM 28.4 °F 20.4 °F 24.8 °F 86% 30.12 in 1.5 mi SW 8.1 mph - N/A   Overcast
7:45 AM 28.4 °F 19.1 °F 24.8 °F 86% 30.12 in 1.2 mi WSW 10.4 mph 21.9 mph N/A   Overcast
8:05 AM 28.4 °F 18.5 °F 24.8 °F 86% 30.12 in 0.5 mi SW 11.5 mph - N/A Fog Light Freezing Fog
8:25 AM 28.4 °F 18.0 °F 24.8 °F 86% 30.12 in 0.2 mi SSW 12.7 mph 18.4 mph N/A Fog Light Freezing Fog
8:45 AM 28.4 °F 18.0 °F 24.8 °F 86% 30.12 in 0.2 mi SW 12.7 mph 17.3 mph N/A Fog Light Freezing Fog
9:05 AM 28.4 °F 23.3 °F 24.8 °F 86% 30.12 in 0.5 mi SSW 4.6 mph 18.4 mph N/A Fog Light Freezing Fog
9:25 AM 28.4 °F 17.0 °F 24.8 °F 86% 30.11 in 1.8 mi SW 15.0 mph 20.7 mph N/A   Overcast
9:45 AM 28.4 °F 19.7 °F 24.8 °F 86% 30.11 in 9.0 mi SW 9.2 mph 21.9 mph N/A   Overcast
10:05 AM 28.4 °F 18.5 °F 24.8 °F 86% 30.10 in 10.0 mi SW 11.5 mph 20.7 mph N/A   Overcast
10:25 AM 30.2 °F 21.9 °F 26.6 °F 86% 30.09 in 10.0 mi SW 9.2 mph 19.6 mph N/A   Overcast
10:45 AM 30.2 °F 20.2 °F 26.6 °F 86% 30.08 in 10.0 mi SSW 12.7 mph 18.4 mph N/A   Overcast
11:05 AM 30.2 °F 23.4 °F 26.6 °F 86% 30.08 in 10.0 mi South 6.9 mph - N/A   Overcast
11:25 AM 30.2 °F 22.6 °F 26.6 °F 86% 30.06 in 10.0 mi South 8.1 mph - N/A   Overcast
11:45 AM 30.2 °F 20.8 °F 26.6 °F 86% 30.05 in 10.0 mi SSW 11.5 mph - N/A   Overcast
12:05 PM 32.0 °F 26.4 °F 26.6 °F 80% 30.04 in 10.0 mi South 5.8 mph - N/A   Overcast
12:25 PM 32.0 °F 24.2 °F 26.6 °F 80% 30.02 in 10.0 mi SSW 9.2 mph 17.3 mph N/A   Overcast
12:45 PM 32.0 °F 23.0 °F 26.6 °F 80% 30.01 in 10.0 mi SSW 11.5 mph 17.3 mph N/A   Overcast
1:05 PM 32.0 °F 22.1 °F 26.6 °F 80% 29.98 in 10.0 mi SW 13.8 mph 20.7 mph N/A   Overcast
1:25 PM 32.0 °F 22.1 °F 26.6 °F 80% 29.98 in 10.0 mi SW 13.8 mph 18.4 mph N/A   Overcast
1:45 PM 32.0 °F 23.0 °F 26.6 °F 80% 29.97 in 10.0 mi SSW 11.5 mph - N/A   Overcast
2:05 PM 32.0 °F 24.2 °F 28.4 °F 87% 29.96 in 10.0 mi SW 9.2 mph - N/A   Overcast
2:25 PM 32.0 °F 24.2 °F 28.4 °F 87% 29.95 in 10.0 mi SW 9.2 mph 18.4 mph N/A   Overcast
2:45 PM 32.0 °F 22.5 °F 28.4 °F 87% 29.94 in 10.0 mi SSW 12.7 mph 19.6 mph N/A   Mostly Cloudy
3:05 PM 32.0 °F 23.0 °F 28.4 °F 87% 29.93 in 10.0 mi SW 11.5 mph 20.7 mph N/A   Mostly Cloudy
3:25 PM 32.0 °F 24.8 °F 28.4 °F 87% 29.92 in 10.0 mi SW 8.1 mph 18.4 mph N/A   Partly Cloudy
3:45 PM 32.0 °F 27.5 °F 26.6 °F 80% 29.91 in 10.0 mi South 4.6 mph - N/A   Partly Cloudy
4:05 PM 32.0 °F 28.7 °F 26.6 °F 80% 29.91 in 10.0 mi SSE 3.5 mph - N/A   Partly Cloudy
4:25 PM 32.0 °F 27.5 °F 26.6 °F 80% 29.89 in 10.0 mi SE 4.6 mph - N/A   Scattered Clouds
4:45 PM 32.0 °F 27.5 °F 26.6 °F 80% 29.89 in 10.0 mi SSE 4.6 mph - N/A   Scattered Clouds
5:05 PM 30.2 °F 25.4 °F 26.6 °F 86% 29.88 in 10.0 mi SSE 4.6 mph - N/A   Clear
5:25 PM 30.2 °F - 26.6 °F 86% 29.87 in 10.0 mi Calm Calm - N/A   Clear
5:35 PM 28.4 °F - 24.8 °F 86% 29.87 in 10.0 mi Calm Calm - N/A   Clear